Total_Precipitation_Accumulation
1.11 1.12 1.11 1.07 0.95 0.93 0.99 0.99 0.97 0.97 1.01 1.00 0.92 0.85 0.92 0.92 0.89 0.96 1.02 1.08 1.15 1.30 1.44 1.57 1.72 1.97 2.27 2.28 2.22 2.09 1.97 1.83 1.61 1.45 1.25 1.17 1.49 1.59 1.50 1.38 1.34 1.31 1.07
1.03 1.06 1.05 0.94 0.87 0.83 0.80 0.77 0.69 0.66 0.69 0.78 0.87 0.82 0.80 0.83 0.86 0.93 0.95 0.99 1.02 1.11 1.21 1.34 1.52 1.81 2.15 2.35 2.42 2.31 2.15 2.00 1.86 1.70 1.38 1.13 1.25 1.60 1.74 1.68 1.45 1.29 1.15
1.11 0.96 0.86 0.81 0.76 0.75 0.66 0.61 0.58 0.52 0.52 0.57 0.66 0.67 0.76 0.84 0.86 0.88 0.90 0.94 0.96 1.05 1.19 1.25 1.30 1.50 1.69 1.90 2.08 2.20 2.18 2.16 2.13 1.90 1.59 1.33 1.26 1.39 1.65 1.67 1.59 1.55 1.32
1.20 1.10 0.95 0.84 0.76 0.71 0.63 0.58 0.54 0.52 0.55 0.61 0.73 0.78 0.73 0.71 0.76 0.86 0.90 0.86 0.85 0.89 0.97 1.07 1.17 1.21 1.37 1.51 1.62 1.80 2.02 2.25 2.33 2.19 1.92 1.60 1.47 1.36 1.47 1.63 1.70 1.65 1.57
1.17 1.18 1.03 0.95 0.87 0.73 0.66 0.65 0.61 0.64 0.61 0.63 0.73 0.84 0.90 0.85 0.82 0.91 0.88 0.86 0.85 0.84 0.89 0.90 0.96 0.98 1.04 1.23 1.27 1.49 1.81 2.08 2.20 2.27 2.14 1.84 1.58 1.40 1.19 1.29 1.55 1.78 1.79
0.82 0.91 0.88 0.79 0.68 0.64 0.63 0.60 0.57 0.55 0.51 0.50 0.54 0.61 0.70 0.74 0.94 0.90 0.75 0.71 0.77 0.83 0.88 0.87 0.89 0.84 0.82 0.89 1.02 1.15 1.45 1.66 1.80 1.87 1.90 1.74 1.53 1.40 1.35 1.31 1.38 1.53 1.59
0.52 0.62 0.62 0.57 0.50 0.46 0.50 0.49 0.47 0.42 0.43 0.41 0.40 0.40 0.46 0.61 0.69 0.54 0.53 0.59 0.72 0.84 0.91 0.94 0.90 0.84 0.89 0.90 0.91 0.93 1.00 1.18 1.39 1.59 1.62 1.52 1.57 1.49 1.41 1.31 1.32 1.34 1.33
0.27 0.32 0.33 0.34 0.34 0.34 0.36 0.37 0.37 0.36 0.35 0.34 0.40 0.46 0.47 0.49 0.56 0.46 0.46 0.55 0.75 0.88 0.88 0.84 0.91 0.92 0.94 1.00 0.94 1.01 0.97 0.95 1.03 1.08 1.22 1.42 1.57 1.73 1.71 1.60 1.61 1.55 1.46
0.11 0.13 0.15 0.18 0.22 0.27 0.29 0.33 0.41 0.43 0.40 0.41 0.51 0.57 0.51 0.44 0.50 0.50 0.55 0.69 0.82 0.90 0.87 0.86 0.94 0.98 1.11 1.16 1.07 1.12 1.08 1.04 1.01 1.12 1.21 1.32 1.40 1.52 1.67 1.71 1.67 1.63 1.50
0.06 0.06 0.09 0.11 0.13 0.17 0.23 0.26 0.27 0.29 0.34 0.41 0.43 0.40 0.41 0.47 0.54 0.52 0.64 0.82 0.94 1.04 1.00 0.99 1.18 1.13 1.11 1.06 1.03 1.18 1.15 1.01 0.94 0.98 1.03 1.11 1.15 1.24 1.36 1.41 1.54 1.61 1.52
0.05 0.08 0.10 0.11 0.11 0.12 0.10 0.09 0.11 0.17 0.19 0.20 0.22 0.27 0.34 0.49 0.54 0.57 0.77 0.86 0.93 1.07 1.09 1.05 0.99 1.12 1.06 0.99 0.98 1.04 1.18 1.07 1.00 1.03 1.03 1.03 1.05 1.08 1.12 1.18 1.30 1.44 1.49
0.04 0.07 0.08 0.07 0.06 0.06 0.07 0.06 0.06 0.09 0.11 0.14 0.17 0.23 0.29 0.36 0.43 0.49 0.62 0.75 0.83 1.00 1.08 0.98 0.88 1.11 1.07 0.98 0.90 0.92 1.07 1.14 1.14 1.18 1.16 1.07 0.98 0.95 0.94 1.01 1.10 1.21 1.31
0.04 0.06 0.06 0.06 0.07 0.06 0.05 0.05 0.05 0.06 0.08 0.10 0.15 0.22 0.31 0.35 0.37 0.43 0.50 0.59 0.71 0.89 0.94 0.95 0.97 1.01 0.93 0.89 0.97 1.01 1.03 1.06 1.15 1.20 1.09 0.94 0.87 0.85 0.92 1.03 1.14 1.23 1.30
0.04 0.05 0.06 0.07 0.08 0.06 0.06 0.07 0.06 0.06 0.08 0.12 0.19 0.25 0.29 0.34 0.37 0.46 0.54 0.57 0.65 0.74 0.75 0.78 0.82 0.79 0.79 0.83 0.90 0.99 1.05 1.10 1.11 1.05 0.94 0.82 0.83 0.88 0.90 0.93 1.07 1.19 1.32
0.04 0.05 0.06 0.08 0.08 0.06 0.05 0.06 0.06 0.06 0.09 0.14 0.18 0.22 0.23 0.26 0.32 0.42 0.57 0.65 0.75 0.84 0.85 0.77 0.78 0.78 0.77 0.77 0.81 0.85 0.90 0.90 0.94 0.92 0.88 0.87 0.86 0.88 0.88 0.87 0.95 1.02 1.03
0.03 0.04 0.05 0.06 0.05 0.06 0.06 0.05 0.04 0.05 0.06 0.07 0.08 0.12 0.18 0.22 0.21 0.24 0.36 0.52 0.70 0.96 1.20 1.15 1.13 1.06 0.97 0.85 0.78 0.73 0.71 0.73 0.77 0.82 0.84 0.82 0.82 0.85 0.90 0.92 0.96 1.02 1.01
0.03 0.04 0.04 0.04 0.04 0.05 0.07 0.11 0.12 0.09 0.05 0.04 0.05 0.09 0.15 0.20 0.19 0.24 0.32 0.37 0.50 0.83 1.22 1.21 1.19 1.04 0.90 0.82 0.71 0.62 0.57 0.59 0.67 0.68 0.71 0.74 0.74 0.78 0.84 0.88 0.89 0.95 0.97
0.02 0.03 0.04 0.05 0.05 0.05 0.06 0.11 0.22 0.27 0.22 0.11 0.07 0.08 0.14 0.21 0.27 0.34 0.45 0.55 0.62 0.76 0.90 0.90 0.83 0.77 0.70 0.58 0.54 0.52 0.49 0.53 0.61 0.63 0.64 0.64 0.65 0.69 0.73 0.80 0.83 0.84 0.88
0.03 0.03 0.06 0.09 0.08 0.06 0.07 0.15 0.20 0.14 0.12 0.14 0.13 0.10 0.11 0.14 0.19 0.26 0.38 0.49 0.52 0.55 0.56 0.51 0.46 0.45 0.46 0.43 0.42 0.41 0.42 0.46 0.53 0.60 0.62 0.60 0.59 0.62 0.66 0.70 0.76 0.84 0.85
0.02 0.03 0.06 0.12 0.12 0.07 0.08 0.12 0.11 0.10 0.12 0.14 0.15 0.14 0.15 0.15 0.16 0.19 0.25 0.29 0.30 0.31 0.30 0.30 0.29 0.30 0.33 0.34 0.36 0.38 0.38 0.41 0.46 0.53 0.56 0.59 0.58 0.57 0.60 0.65 0.69 0.72 0.73
0.01 0.02 0.03 0.06 0.09 0.07 0.08 0.09 0.08 0.09 0.11 0.12 0.13 0.13 0.17 0.20 0.20 0.20 0.19 0.19 0.21 0.24 0.26 0.27 0.26 0.28 0.32 0.32 0.35 0.39 0.43 0.45 0.47 0.54 0.55 0.56 0.60 0.61 0.60 0.63 0.67 0.67 0.70
0.02 0.02 0.03 0.05 0.07 0.06 0.07 0.09 0.11 0.09 0.09 0.11 0.13 0.14 0.16 0.21 0.22 0.21 0.19 0.19 0.19 0.21 0.27 0.31 0.32 0.32 0.32 0.35 0.39 0.43 0.45 0.47 0.50 0.53 0.58 0.60 0.59 0.60 0.61 0.63 0.68 0.69 0.70
0.03 0.04 0.04 0.05 0.07 0.06 0.06 0.08 0.12 0.14 0.13 0.14 0.15 0.15 0.15 0.18 0.20 0.24 0.24 0.24 0.27 0.30 0.29 0.29 0.34 0.35 0.34 0.36 0.40 0.46 0.52 0.53 0.55 0.59 0.65 0.65 0.61 0.61 0.64 0.63 0.65 0.69 0.71
0.04 0.04 0.04 0.06 0.07 0.08 0.08 0.09 0.10 0.12 0.15 0.18 0.18 0.17 0.19 0.21 0.24 0.23 0.23 0.29 0.31 0.31 0.30 0.30 0.32 0.36 0.38 0.39 0.41 0.44 0.48 0.51 0.56 0.61 0.65 0.69 0.67 0.63 0.66 0.71 0.72 0.74 0.79
0.05 0.06 0.06 0.08 0.11 0.12 0.13 0.14 0.14 0.15 0.18 0.22 0.20 0.20 0.19 0.20 0.22 0.21 0.22 0.26 0.29 0.28 0.28 0.29 0.32 0.35 0.38 0.40 0.43 0.44 0.50 0.54 0.57 0.60 0.63 0.70 0.72 0.71 0.71 0.77 0.83 0.85 0.89
0.09 0.10 0.12 0.13 0.15 0.17 0.18 0.19 0.19 0.19 0.20 0.20 0.20 0.22 0.23 0.24 0.25 0.24 0.24 0.25 0.27 0.28 0.28 0.30 0.31 0.34 0.35 0.36 0.41 0.48 0.52 0.50 0.52 0.57 0.62 0.71 0.78 0.80 0.81 0.82 0.83 0.86 0.90